Time,TemperatureF,DewpointF,PressureIn,WindDirection,WindDirectionDegrees,WindSpeedMPH,WindSpeedGustMPH,Humidity,HourlyPrecipIn,Conditions,Clouds,dailyrainin,SolarRadiationWatts/m^2,SoftwareType,DateUTC
2013-03-31 00:04:00,66.3,61.3,29.77,North,360,2.0,2.0,84,0.00,,,0.00,0,Wunderground v.1.15,2013-03-30 13:04:00,
2013-03-31 00:09:00,66.2,61.2,29.77,NNW,327,2.0,2.0,84,0.00,,,0.00,0,Wunderground v.1.15,2013-03-30 13:09:00,
2013-03-31 00:14:00,66.1,61.1,29.77,North,355,1.0,1.0,84,0.00,,,0.00,0,Wunderground v.1.15,2013-03-30 13:14:00,
2013-03-31 00:24:00,66.0,61.0,29.76,North,351,1.0,1.0,84,0.00,,,0.00,0,Wunderground v.1.15,2013-03-30 13:24:00,
2013-03-31 00:29:00,65.9,60.9,29.76,North,5,1.0,1.0,84,0.00,,,0.00,0,Wunderground v.1.15,2013-03-30 13:29:00,
2013-03-31 00:39:00,65.9,60.9,29.76,NNE,13,1.0,2.0,84,0.00,,,0.00,0,Wunderground v.1.15,2013-03-30 13:39:00,
2013-03-31 00:44:00,66.0,61.0,29.76,NNW,346,2.0,2.0,84,0.00,,,0.00,0,Wunderground v.1.15,2013-03-30 13:44:00,
2013-03-31 06:09:00,63.7,59.8,29.72,NNE,15,1.0,1.0,87,0.00,,,0.00,0,Wunderground v.1.15,2013-03-30 19:09:00,
2013-03-31 06:19:00,63.6,60.0,29.72,NNE,28,2.0,2.0,88,0.00,,,0.00,0,Wunderground v.1.15,2013-03-30 19:19:00,
2013-03-31 06:29:00,63.6,60.0,29.73,NNE,19,2.0,2.0,88,0.00,,,0.00,0,Wunderground v.1.15,2013-03-30 19:29:00,
2013-03-31 06:39:00,63.5,59.9,29.73,NNE,28,2.0,5.0,88,0.00,,,0.00,0,Wunderground v.1.15,2013-03-30 19:39:00,
2013-03-31 06:44:00,63.5,59.9,29.73,NNE,19,2.0,5.0,88,0.00,,,0.00,0,Wunderground v.1.15,2013-03-30 19:44:00,
2013-03-31 06:49:00,63.5,59.9,29.74,NE,38,3.0,5.0,88,0.00,,,0.00,0,Wunderground v.1.15,2013-03-30 19:49:00,
2013-03-31 06:59:00,63.5,59.9,29.74,NNW,344,2.0,5.0,88,0.00,,,0.00,0,Wunderground v.1.15,2013-03-30 19:59:00,
2013-03-31 07:04:00,63.5,59.9,29.75,North,355,1.0,1.0,88,0.00,,,0.00,0,Wunderground v.1.15,2013-03-30 20:04:00,
2013-03-31 07:09:00,63.5,59.9,29.75,North,5,2.0,2.0,88,0.00,,,0.00,0,Wunderground v.1.15,2013-03-30 20:09:00,
2013-03-31 07:19:00,63.5,59.9,29.75,North,355,3.0,3.0,88,0.00,,,0.00,12,Wunderground v.1.15,2013-03-30 20:19:00,
2013-03-31 07:24:00,63.5,59.9,29.75,NNE,29,2.0,2.0,88,0.00,,,0.00,14,Wunderground v.1.15,2013-03-30 20:24:00,
2013-03-31 07:34:00,63.5,59.9,29.75,NW,316,2.0,6.0,88,0.00,,,0.00,16,Wunderground v.1.15,2013-03-30 20:34:00,
2013-03-31 07:44:00,63.6,60.0,29.76,NW,305,2.0,2.0,88,0.00,,,0.00,37,Wunderground v.1.15,2013-03-30 20:44:00,
2013-03-31 07:49:00,63.7,60.1,29.75,NNW,334,2.0,6.0,88,0.00,,,0.00,69,Wunderground v.1.15,2013-03-30 20:49:00,
2013-03-31 07:54:00,64.0,60.4,29.75,NNW,331,1.0,6.0,88,0.00,,,0.00,88,Wunderground v.1.15,2013-03-30 20:54:00,
2013-03-31 08:04:00,64.7,60.7,29.75,NNW,328,0.0,5.0,87,0.00,,,0.00,77,Wunderground v.1.15,2013-03-30 21:04:00,
2013-03-31 08:09:00,65.0,60.7,29.75,North,5,1.0,5.0,86,0.00,,,0.00,91,Wunderground v.1.15,2013-03-30 21:09:00,
2013-03-31 08:14:00,65.2,60.9,29.76,NNW,342,1.0,1.0,86,0.00,,,0.00,84,Wunderground v.1.15,2013-03-30 21:14:00,
2013-03-31 08:24:00,65.5,61.2,29.76,NW,313,1.0,1.0,86,0.00,,,0.00,70,Wunderground v.1.15,2013-03-30 21:24:00,
2013-03-31 08:29:00,65.5,61.2,29.77,NW,310,1.0,5.0,86,0.00,,,0.00,63,Wunderground v.1.15,2013-03-30 21:29:00,
2013-03-31 08:39:00,65.6,61.0,29.77,NW,312,1.0,4.0,85,0.00,,,0.00,65,Wunderground v.1.15,2013-03-30 21:39:00,
2013-03-31 08:44:00,65.8,61.2,29.77,NW,313,2.0,2.0,85,0.00,,,0.00,63,Wunderground v.1.15,2013-03-30 21:44:00,
2013-03-31 08:54:00,66.4,60.7,29.78,NW,305,3.0,3.0,82,0.00,,,0.00,67,Wunderground v.1.15,2013-03-30 21:54:00,
2013-03-31 08:59:00,66.6,60.9,29.79,NW,310,3.0,4.0,82,0.00,,,0.00,60,Wunderground v.1.15,2013-03-30 21:59:00,
2013-03-31 09:04:00,66.8,60.8,29.79,NW,311,2.0,2.0,81,0.00,,,0.00,60,Wunderground v.1.15,2013-03-30 22:04:00,
2013-03-31 09:09:00,66.8,60.8,29.79,NW,325,2.0,5.0,81,0.00,,,0.00,58,Wunderground v.1.15,2013-03-30 22:09:00,
2013-03-31 09:19:00,66.7,60.7,29.80,NW,315,2.0,5.0,81,0.00,,,0.00,56,Wunderground v.1.15,2013-03-30 22:19:00,
2013-03-31 09:24:00,66.7,60.7,29.80,NW,313,2.0,2.0,81,0.00,,,0.00,69,Wunderground v.1.15,2013-03-30 22:24:00,
2013-03-31 09:29:00,66.7,60.7,29.80,NW,316,2.0,5.0,81,0.00,,,0.00,77,Wunderground v.1.15,2013-03-30 22:29:00,
2013-03-31 09:39:00,66.7,60.7,29.80,NW,321,2.0,4.0,81,0.00,,,0.00,62,Wunderground v.1.15,2013-03-30 22:39:00,
2013-03-31 09:49:00,66.7,60.0,29.80,West,279,2.0,4.0,79,0.00,,,0.00,91,Wunderground v.1.15,2013-03-30 22:49:00,
2013-03-31 09:54:00,66.8,60.1,29.81,WNW,298,3.0,5.0,79,0.00,,,0.00,104,Wunderground v.1.15,2013-03-30 22:54:00,
2013-03-31 09:59:00,66.9,59.5,29.80,West,281,3.0,6.0,77,0.00,,,0.00,121,Wunderground v.1.15,2013-03-30 22:59:00,
2013-03-31 10:09:00,67.6,59.0,29.80,WNW,295,3.0,7.0,74,0.00,,,0.00,127,Wunderground v.1.15,2013-03-30 23:09:00,
2013-03-31 10:14:00,67.8,59.6,29.81,WNW,283,2.0,7.0,75,0.00,,,0.00,149,Wunderground v.1.15,2013-03-30 23:14:00,
2013-03-31 10:19:00,67.8,59.6,29.81,WNW,282,2.0,7.0,75,0.00,,,0.00,211,Wunderground v.1.15,2013-03-30 23:19:00,
2013-03-31 10:29:00,68.6,58.8,29.81,WSW,240,1.0,7.0,71,0.00,,,0.00,120,Wunderground v.1.15,2013-03-30 23:29:00,
2013-03-31 10:39:00,68.6,58.0,29.80,SW,223,1.0,6.0,69,0.00,,,0.00,113,Wunderground v.1.15,2013-03-30 23:39:00,
2013-03-31 10:44:00,68.3,57.7,29.79,SSW,211,1.0,6.0,69,0.00,,,0.00,123,Wunderground v.1.15,2013-03-30 23:44:00,
2013-03-31 10:49:00,68.4,57.8,29.79,SW,236,1.0,6.0,69,0.00,,,0.00,178,Wunderground v.1.15,2013-03-30 23:49:00,
2013-03-31 10:59:00,68.7,56.9,29.79,WSW,242,2.0,6.0,66,0.00,,,0.00,195,Wunderground v.1.15,2013-03-30 23:59:00,
2013-03-31 11:04:00,68.9,57.1,29.78,SSW,201,2.0,2.0,66,0.00,,,0.00,171,Wunderground v.1.15,2013-03-31 00:04:00,
2013-03-31 11:09:00,69.1,56.4,29.78,SSW,213,2.0,5.0,64,0.00,,,0.00,121,Wunderground v.1.15,2013-03-31 00:09:00,
2013-03-31 11:14:00,69.0,55.9,29.78,South,173,2.0,5.0,63,0.00,,,0.00,123,Wunderground v.1.15,2013-03-31 00:14:00,
2013-03-31 11:24:00,68.8,56.6,29.79,South,178,2.0,6.0,65,0.00,,,0.00,227,Wunderground v.1.15,2013-03-31 00:24:00,
2013-03-31 11:29:00,68.9,56.6,29.78,SW,227,3.0,6.0,65,0.00,,,0.00,186,Wunderground v.1.15,2013-03-31 00:29:00,
2013-03-31 11:39:00,69.1,55.5,29.78,West,259,3.0,7.0,62,0.00,,,0.00,113,Wunderground v.1.15,2013-03-31 00:39:00,
2013-03-31 11:49:00,68.9,54.4,29.78,SW,231,4.0,4.0,60,0.00,,,0.00,218,Wunderground v.1.15,2013-03-31 00:49:00,
2013-03-31 11:54:00,69.0,55.0,29.78,SSW,211,4.0,7.0,61,0.00,,,0.00,197,Wunderground v.1.15,2013-03-31 00:54:00,
2013-03-31 11:59:00,69.2,55.2,29.78,WSW,250,4.0,7.0,61,0.00,,,0.00,234,Wunderground v.1.15,2013-03-31 00:59:00,
2013-03-31 12:04:00,69.6,56.9,29.78,SW,230,3.0,3.0,64,0.00,,,0.00,323,Wunderground v.1.15,2013-03-31 01:04:00,
2013-03-31 12:14:00,71.4,55.4,29.77,SW,223,2.0,9.0,57,0.00,,,0.00,429,Wunderground v.1.15,2013-03-31 01:14:00,
2013-03-31 12:19:00,71.8,54.8,29.77,SW,219,3.0,9.0,55,0.00,,,0.00,332,Wunderground v.1.15,2013-03-31 01:19:00,
2013-03-31 12:29:00,72.1,55.5,29.77,SSW,213,3.0,9.0,56,0.00,,,0.00,353,Wunderground v.1.15,2013-03-31 01:29:00,
2013-03-31 12:39:00,73.4,55.7,29.77,SW,225,2.0,5.0,54,0.00,,,0.00,529,Wunderground v.1.15,2013-03-31 01:39:00,
2013-03-31 12:44:00,74.4,55.6,29.77,West,270,3.0,8.0,52,0.00,,,0.00,594,Wunderground v.1.15,2013-03-31 01:44:00,
2013-03-31 12:49:00,74.6,56.9,29.77,WSW,250,4.0,8.0,54,0.00,,,0.00,606,Wunderground v.1.15,2013-03-31 01:49:00,
2013-03-31 12:59:00,75.2,55.8,29.77,SSW,199,4.0,8.0,51,0.00,,,0.00,483,Wunderground v.1.15,2013-03-31 01:59:00,
2013-03-31 13:04:00,75.5,55.0,29.77,WSW,243,4.0,4.0,49,0.00,,,0.00,534,Wunderground v.1.15,2013-03-31 02:04:00,
2013-03-31 13:09:00,75.7,55.7,29.77,WNW,301,3.0,13.0,50,0.00,,,0.00,476,Wunderground v.1.15,2013-03-31 02:09:00,
2013-03-31 13:19:00,75.0,55.1,29.76,SSW,213,4.0,13.0,50,0.00,,,0.00,457,Wunderground v.1.15,2013-03-31 02:19:00,
2013-03-31 13:24:00,74.8,54.4,29.76,SW,232,4.0,13.0,49,0.00,,,0.00,450,Wunderground v.1.15,2013-03-31 02:24:00,
2013-03-31 13:29:00,74.8,54.9,29.76,WSW,252,4.0,13.0,50,0.00,,,0.00,462,Wunderground v.1.15,2013-03-31 02:29:00,
2013-03-31 13:39:00,75.5,53.9,29.75,WNW,286,4.0,10.0,47,0.00,,,0.00,397,Wunderground v.1.15,2013-03-31 02:39:00,
2013-03-31 13:49:00,75.3,53.7,29.75,West,270,5.0,10.0,47,0.00,,,0.00,455,Wunderground v.1.15,2013-03-31 02:49:00,
2013-03-31 13:54:00,75.7,54.0,29.75,WSW,257,4.0,4.0,47,0.00,,,0.00,366,Wunderground v.1.15,2013-03-31 02:54:00,
2013-03-31 13:59:00,76.0,56.0,29.75,WSW,240,3.0,10.0,50,0.00,,,0.00,371,Wunderground v.1.15,2013-03-31 02:59:00,
2013-03-31 14:04:00,75.4,54.3,29.75,West,261,3.0,13.0,48,0.00,,,0.00,404,Wunderground v.1.15,2013-03-31 03:04:00,
2013-03-31 14:14:00,75.9,54.8,29.75,West,261,5.0,5.0,48,0.00,,,0.00,494,Wunderground v.1.15,2013-03-31 03:14:00,
2013-03-31 14:19:00,76.1,54.4,29.75,WSW,244,5.0,9.0,47,0.00,,,0.00,469,Wunderground v.1.15,2013-03-31 03:19:00,
2013-03-31 14:24:00,76.1,55.0,29.75,WSW,257,5.0,5.0,48,0.00,,,0.00,496,Wunderground v.1.15,2013-03-31 03:24:00,
2013-03-31 14:29:00,76.6,54.9,29.75,NW,309,4.0,8.0,47,0.00,,,0.00,531,Wunderground v.1.15,2013-03-31 03:29:00,
2013-03-31 14:39:00,76.7,55.0,29.75,West,274,5.0,11.0,47,0.00,,,0.00,431,Wunderground v.1.15,2013-03-31 03:39:00,
2013-03-31 14:44:00,76.3,54.0,29.75,West,281,5.0,5.0,46,0.00,,,0.00,374,Wunderground v.1.15,2013-03-31 03:44:00,
2013-03-31 14:49:00,76.3,54.0,29.75,SW,219,5.0,7.0,46,0.00,,,0.00,295,Wunderground v.1.15,2013-03-31 03:49:00,
2013-03-31 14:59:00,75.4,54.3,29.75,NW,307,4.0,11.0,48,0.00,,,0.00,241,Wunderground v.1.15,2013-03-31 03:59:00,
2013-03-31 15:04:00,75.1,53.5,29.75,West,266,4.0,4.0,47,0.00,,,0.00,214,Wunderground v.1.15,2013-03-31 04:04:00,
2013-03-31 15:09:00,74.9,53.3,29.75,West,260,4.0,12.0,47,0.00,,,0.00,220,Wunderground v.1.15,2013-03-31 04:09:00,
2013-03-31 15:14:00,74.8,53.8,29.76,West,270,3.0,12.0,48,0.00,,,0.00,214,Wunderground v.1.15,2013-03-31 04:14:00,
2013-03-31 15:24:00,74.7,54.3,29.76,SW,234,3.0,3.0,49,0.00,,,0.00,255,Wunderground v.1.15,2013-03-31 04:24:00,
2013-03-31 15:29:00,74.9,54.4,29.76,SSW,208,3.0,12.0,49,0.00,,,0.00,223,Wunderground v.1.15,2013-03-31 04:29:00,
2013-03-31 15:39:00,75.0,54.5,29.77,SW,220,3.0,10.0,49,0.00,,,0.00,258,Wunderground v.1.15,2013-03-31 04:39:00,
2013-03-31 15:44:00,75.5,55.6,29.77,West,262,2.0,2.0,50,0.00,,,0.00,265,Wunderground v.1.15,2013-03-31 04:44:00,
2013-03-31 15:49:00,75.4,54.9,29.77,SW,230,2.0,10.0,49,0.00,,,0.00,241,Wunderground v.1.15,2013-03-31 04:49:00,
2013-03-31 15:59:00,74.4,56.2,29.78,SW,235,2.0,10.0,53,0.00,,,0.00,264,Wunderground v.1.15,2013-03-31 04:59:00,
2013-03-31 16:04:00,74.7,56.4,29.77,SSE,153,2.0,7.0,53,0.00,,,0.00,555,Wunderground v.1.15,2013-03-31 05:04:00,
2013-03-31 16:09:00,74.8,56.0,29.78,North,5,2.0,7.0,52,0.00,,,0.00,209,Wunderground v.1.15,2013-03-31 05:09:00,
2013-03-31 16:19:00,73.3,56.7,29.78,SW,226,2.0,7.0,56,0.00,,,0.00,77,Wunderground v.1.15,2013-03-31 05:19:00,
2013-03-31 16:24:00,72.9,56.8,29.78,West,269,2.0,7.0,57,0.00,,,0.00,35,Wunderground v.1.15,2013-03-31 05:24:00,
2013-03-31 16:29:00,72.4,56.8,29.79,WNW,288,2.0,7.0,58,0.00,,,0.00,25,Wunderground v.1.15,2013-03-31 05:29:00,
2013-03-31 16:39:00,71.9,57.3,29.79,South,176,1.0,3.0,60,0.00,,,0.00,18,Wunderground v.1.15,2013-03-31 05:39:00,
2013-03-31 16:44:00,71.6,57.0,29.79,WSW,250,1.0,1.0,60,0.00,,,0.00,16,Wunderground v.1.15,2013-03-31 05:44:00,
2013-03-31 16:54:00,71.2,57.1,29.79,WSW,237,1.0,10.0,61,0.00,,,0.00,12,Wunderground v.1.15,2013-03-31 05:54:00,
2013-03-31 16:59:00,71.1,57.4,29.79,South,188,1.0,10.0,62,0.00,,,0.00,14,Wunderground v.1.15,2013-03-31 05:59:00,
2013-03-31 17:19:00,70.8,58.0,29.80,SW,234,1.0,6.0,64,0.00,,,0.00,26,Wunderground v.1.15,2013-03-31 06:19:00,
2013-03-31 17:24:00,70.8,57.6,29.80,SSW,202,1.0,6.0,63,0.00,,,0.00,35,Wunderground v.1.15,2013-03-31 06:24:00,
2013-03-31 17:34:00,70.9,57.7,29.80,SW,229,2.0,7.0,63,0.00,,,0.00,56,Wunderground v.1.15,2013-03-31 06:34:00,
2013-03-31 17:39:00,71.0,57.8,29.81,SSW,209,2.0,7.0,63,0.00,,,0.00,62,Wunderground v.1.15,2013-03-31 06:39:00,
2013-03-31 17:44:00,71.1,57.9,29.81,SSW,211,2.0,7.0,63,0.00,,,0.00,60,Wunderground v.1.15,2013-03-31 06:44:00,
2013-03-31 17:49:00,71.1,57.9,29.81,West,275,2.0,7.0,63,0.00,,,0.00,56,Wunderground v.1.15,2013-03-31 06:49:00,
2013-03-31 17:59:00,71.0,58.2,29.81,West,265,2.0,7.0,64,0.00,,,0.00,46,Wunderground v.1.15,2013-03-31 06:59:00,
2013-03-31 18:04:00,71.0,58.6,29.81,West,262,2.0,7.0,65,0.00,,,0.00,40,Wunderground v.1.15,2013-03-31 07:04:00,
2013-03-31 18:09:00,70.9,58.5,29.81,WSW,252,2.0,7.0,65,0.00,,,0.00,33,Wunderground v.1.15,2013-03-31 07:09:00,
2013-03-31 18:19:00,70.8,58.9,29.82,SSW,206,1.0,7.0,66,0.00,,,0.00,25,Wunderground v.1.15,2013-03-31 07:19:00,
2013-03-31 18:24:00,70.7,58.8,29.82,West,270,1.0,7.0,66,0.00,,,0.00,19,Wunderground v.1.15,2013-03-31 07:24:00,
2013-03-31 18:34:00,70.6,59.1,29.82,WSW,240,2.0,2.0,67,0.00,,,0.00,11,Wunderground v.1.15,2013-03-31 07:34:00,
2013-03-31 18:39:00,70.5,59.0,29.82,SSW,205,2.0,3.0,67,0.00,,,0.00,7,Wunderground v.1.15,2013-03-31 07:39:00,
2013-03-31 18:49:00,70.3,59.2,29.83,West,260,0.0,7.0,68,0.00,,,0.00,0,Wunderground v.1.15,2013-03-31 07:49:00,
2013-03-31 18:54:00,70.2,59.1,29.83,SSW,200,1.0,7.0,68,0.00,,,0.00,0,Wunderground v.1.15,2013-03-31 07:54:00,
2013-03-31 19:04:00,70.1,59.5,29.84,WSW,246,2.0,2.0,69,0.00,,,0.00,0,Wunderground v.1.15,2013-03-31 08:04:00,
2013-03-31 19:09:00,70.0,59.4,29.84,SW,223,1.0,5.0,69,0.00,,,0.00,0,Wunderground v.1.15,2013-03-31 08:09:00,
2013-03-31 19:14:00,69.9,59.3,29.84,SSW,213,1.0,1.0,69,0.00,,,0.00,0,Wunderground v.1.15,2013-03-31 08:14:00,
2013-03-31 19:19:00,69.7,59.1,29.84,SW,217,1.0,5.0,69,0.00,,,0.00,0,Wunderground v.1.15,2013-03-31 08:19:00,
2013-03-31 19:29:00,69.5,59.3,29.85,SW,231,1.0,5.0,70,0.00,,,0.00,0,Wunderground v.1.15,2013-03-31 08:29:00,
2013-03-31 19:39:00,69.2,59.4,29.85,SW,217,1.0,5.0,71,0.00,,,0.00,0,Wunderground v.1.15,2013-03-31 08:39:00,
2013-03-31 19:44:00,69.2,59.4,29.85,SW,226,1.0,1.0,71,0.00,,,0.00,0,Wunderground v.1.15,2013-03-31 08:44:00,
2013-03-31 19:49:00,69.0,59.2,29.85,SW,225,1.0,5.0,71,0.00,,,0.00,0,Wunderground v.1.15,2013-03-31 08:49:00,
2013-03-31 19:59:00,68.7,59.3,29.86,South,186,0.0,5.0,72,0.00,,,0.00,0,Wunderground v.1.15,2013-03-31 08:59:00,
2013-03-31 20:04:00,68.7,59.7,29.86,SW,225,1.0,8.0,73,0.00,,,0.00,0,Wunderground v.1.15,2013-03-31 09:04:00,
2013-03-31 20:09:00,68.6,60.0,29.86,WNW,283,1.0,8.0,74,0.00,,,0.00,0,Wunderground v.1.15,2013-03-31 09:09:00,
2013-03-31 20:19:00,68.5,60.6,29.87,SW,227,1.0,2.0,76,0.00,,,0.00,0,Wunderground v.1.15,2013-03-31 09:19:00,
2013-03-31 20:24:00,68.4,60.9,29.87,West,271,1.0,8.0,77,0.00,,,0.00,0,Wunderground v.1.15,2013-03-31 09:24:00,
2013-03-31 20:34:00,68.0,60.2,29.88,NW,310,1.0,1.0,76,0.00,,,0.00,0,Wunderground v.1.15,2013-03-31 09:34:00,
2013-03-31 20:39:00,67.8,59.6,29.88,SSW,205,1.0,4.0,75,0.00,,,0.00,0,Wunderground v.1.15,2013-03-31 09:39:00,
2013-03-31 20:49:00,67.6,58.6,29.88,SE,145,2.0,4.0,73,0.00,,,0.00,0,Wunderground v.1.15,2013-03-31 09:49:00,
2013-03-31 20:54:00,67.7,58.7,29.88,SW,232,2.0,4.0,73,0.00,,,0.00,0,Wunderground v.1.15,2013-03-31 09:54:00,
2013-03-31 20:59:00,67.7,59.5,29.88,SW,232,2.0,2.0,75,0.00,,,0.00,0,Wunderground v.1.15,2013-03-31 09:59:00,
2013-03-31 21:09:00,67.5,59.7,29.89,WSW,254,1.0,9.0,76,0.00,,,0.00,0,Wunderground v.1.15,2013-03-31 10:09:00,
2013-03-31 21:14:00,67.5,60.0,29.89,NNW,344,2.0,2.0,77,0.00,,,0.00,0,Wunderground v.1.15,2013-03-31 10:14:00,
2013-03-31 21:19:00,67.6,60.1,29.89,WNW,299,2.0,9.0,77,0.00,,,0.00,0,Wunderground v.1.15,2013-03-31 10:19:00,
2013-03-31 21:29:00,67.2,59.4,29.89,WNW,300,1.0,9.0,76,0.00,,,0.00,0,Wunderground v.1.15,2013-03-31 10:29:00,
2013-03-31 21:34:00,67.1,59.3,29.89,WSW,244,1.0,1.0,76,0.00,,,0.00,0,Wunderground v.1.15,2013-03-31 10:34:00,
2013-03-31 21:39:00,67.1,58.9,29.89,SW,229,1.0,9.0,75,0.00,,,0.00,0,Wunderground v.1.15,2013-03-31 10:39:00,
2013-03-31 21:44:00,67.1,58.9,29.90,SW,236,1.0,9.0,75,0.00,,,0.00,0,Wunderground v.1.15,2013-03-31 10:44:00,
2013-03-31 21:54:00,67.2,59.4,29.90,WSW,237,2.0,2.0,76,0.00,,,0.00,0,Wunderground v.1.15,2013-03-31 10:54:00,
2013-03-31 21:59:00,67.1,59.3,29.90,WNW,288,2.0,9.0,76,0.00,,,0.00,0,Wunderground v.1.15,2013-03-31 10:59:00,
2013-03-31 22:09:00,67.0,59.5,29.91,North,355,0.0,7.0,77,0.00,,,0.00,0,Wunderground v.1.15,2013-03-31 11:09:00,
2013-03-31 22:14:00,67.0,59.9,29.91,South,183,1.0,1.0,78,0.00,,,0.00,0,Wunderground v.1.15,2013-03-31 11:14:00,
2013-03-31 22:19:00,66.9,59.8,29.91,North,5,1.0,7.0,78,0.00,,,0.00,0,Wunderground v.1.15,2013-03-31 11:19:00,
2013-03-31 22:29:00,67.0,60.3,29.91,NNW,328,1.0,7.0,79,0.00,,,0.00,0,Wunderground v.1.15,2013-03-31 11:29:00,
2013-03-31 22:34:00,67.1,60.7,29.92,NW,306,1.0,1.0,80,0.00,,,0.00,0,Wunderground v.1.15,2013-03-31 11:34:00,
2013-03-31 22:44:00,67.1,60.7,29.92,West,270,1.0,1.0,80,0.00,,,0.00,0,Wunderground v.1.15,2013-03-31 11:44:00,
2013-03-31 22:49:00,67.0,61.0,29.92,WNW,284,1.0,7.0,81,0.00,,,0.00,0,Wunderground v.1.15,2013-03-31 11:49:00,
2013-03-31 22:54:00,66.7,60.7,29.92,NW,306,1.0,1.0,81,0.00,,,0.00,0,Wunderground v.1.15,2013-03-31 11:54:00,
2013-03-31 22:59:00,66.3,60.6,29.92,North,355,1.0,7.0,82,0.00,,,0.00,0,Wunderground v.1.15,2013-03-31 11:59:00,
2013-03-31 23:04:00,66.0,60.7,29.93,NW,322,1.0,7.0,83,0.00,,,0.00,0,Wunderground v.1.15,2013-03-31 12:04:00,
2013-03-31 23:14:00,65.5,61.2,29.93,NE,41,1.0,7.0,86,0.00,,,0.01,0,Wunderground v.1.15,2013-03-31 12:14:00,
2013-03-31 23:19:00,65.2,61.2,29.93,West,281,1.0,7.0,87,0.00,,,0.01,0,Wunderground v.1.15,2013-03-31 12:19:00,
2013-03-31 23:24:00,65.0,61.4,29.93,South,171,1.0,7.0,88,0.04,,,0.02,0,Wunderground v.1.15,2013-03-31 12:24:00,
2013-03-31 23:34:00,64.4,61.4,29.93,NW,314,1.0,1.0,90,0.09,,,0.02,0,Wunderground v.1.15,2013-03-31 12:34:00,
2013-03-31 23:39:00,64.2,61.2,29.93,NW,314,1.0,7.0,90,0.06,,,0.02,0,Wunderground v.1.15,2013-03-31 12:39:00,
2013-03-31 23:44:00,64.1,61.1,29.93,NW,314,0.0,7.0,90,0.04,,,0.02,0,Wunderground v.1.15,2013-03-31 12:44:00,
2013-03-31 23:54:00,63.9,61.2,29.93,NNW,334,0.0,7.0,91,0.00,,,0.02,0,Wunderground v.1.15,2013-03-31 12:54:00,
2013-03-31 23:59:00,64.0,61.6,29.93,NNW,334,0.0,7.0,92,0.00,,,0.02,0,Wunderground v.1.15,2013-03-31 12:59:00,